owner,sensor,date,latitude,longitude,vertical_datum,mass_concentration_of_oxygen_in_sea_water,qcFlag 
SCCF RECON,ioos:station:SCCF:12:1,2012-09-01T00:00:00Z,26.4966,-82.1479,1.887,7.49,1111122 
SCCF RECON,ioos:station:SCCF:12:1,2012-09-01T01:00:00Z,26.4966,-82.1479,1.86,7.2,1111122 
SCCF RECON,ioos:station:SCCF:12:1,2012-09-01T02:00:00Z,26.4966,-82.1479,1.961,6.6,1111122 
SCCF RECON,ioos:station:SCCF:12:1,2012-09-01T03:00:00Z,26.4966,-82.1479,2.123,7.04,1111122 
SCCF RECON,ioos:station:SCCF:12:1,2012-09-01T04:00:00Z,26.4966,-82.1479,2.261,6.92,1111122 
SCCF RECON,ioos:station:SCCF:12:1,2012-09-01T05:00:00Z,26.4966,-82.1479,2.37,6.78,1111122 
SCCF RECON,ioos:station:SCCF:12:1,2012-09-01T06:00:00Z,26.4966,-82.1479,2.43,7.24,1111122 
SCCF RECON,ioos:station:SCCF:12:1,2012-09-01T07:00:00Z,26.4966,-82.1479,2.417,6.85,1111122 
SCCF RECON,ioos:station:SCCF:12:1,2012-09-01T08:00:00Z,26.4966,-82.1479,2.33,6.48,1111122 
SCCF RECON,ioos:station:SCCF:12:1,2012-09-01T09:00:00Z,26.4966,-82.1479,2.2,6.61,1111122 
SCCF RECON,ioos:station:SCCF:12:1,2012-09-01T10:00:00Z,26.4966,-82.1479,2.09,6.47,1111122 
SCCF RECON,ioos:station:SCCF:12:1,2012-09-01T11:00:00Z,26.4966,-82.1479,2.01,6.35,1111122 
SCCF RECON,ioos:station:SCCF:12:1,2012-09-01T12:00:00Z,26.4966,-82.1479,1.966,6.2,1111122 
SCCF RECON,ioos:station:SCCF:12:1,2012-09-01T13:00:00Z,26.4966,-82.1479,1.98,6.15,1111122 
SCCF RECON,ioos:station:SCCF:12:1,2012-09-01T14:00:00Z,26.4966,-82.1479,2.08,6.4,1111122 
SCCF RECON,ioos:station:SCCF:12:1,2012-09-01T15:00:00Z,26.4966,-82.1479,2.242,6.38,1111122 
SCCF RECON,ioos:station:SCCF:12:1,2012-09-01T16:00:00Z,26.4966,-82.1479,2.405,6.12,1111122 
SCCF RECON,ioos:station:SCCF:12:1,2012-09-01T17:00:00Z,26.4966,-82.1479,2.507,6.01,1111122 
SCCF RECON,ioos:station:SCCF:12:1,2012-09-01T18:00:00Z,26.4966,-82.1479,2.55,6.82,1111122 
SCCF RECON,ioos:station:SCCF:12:1,2012-09-01T19:00:00Z,26.4966,-82.1479,2.54,7.42,1111122 
SCCF RECON,ioos:station:SCCF:12:1,2012-09-01T20:00:00Z,26.4966,-82.1479,2.457,6.51,1111122 
SCCF RECON,ioos:station:SCCF:12:1,2012-09-01T21:00:00Z,26.4966,-82.1479,2.332,7.32,1111122 
SCCF RECON,ioos:station:SCCF:12:1,2012-09-01T22:00:00Z,26.4966,-82.1479,2.198,7.99,1111122 
SCCF RECON,ioos:station:SCCF:12:1,2012-09-01T23:00:00Z,26.4966,-82.1479,2.095,7.86,1111122 
SCCF RECON,ioos:station:SCCF:12:1,2012-09-02T00:00:00Z,26.4966,-82.1479,2.007,7.84,1111122 
SCCF RECON,ioos:station:SCCF:12:1,2012-09-02T01:00:00Z,26.4966,-82.1479,1.956,7.74,1111122 
SCCF RECON,ioos:station:SCCF:12:1,2012-09-02T02:00:00Z,26.4966,-82.1479,2.01,6.72,1111122 
SCCF RECON,ioos:station:SCCF:12:1,2012-09-02T03:00:00Z,26.4966,-82.1479,2.119,6.34,1111122 
SCCF RECON,ioos:station:SCCF:12:1,2012-09-02T04:00:00Z,26.4966,-82.1479,2.262,6.38,1111122 
SCCF RECON,ioos:station:SCCF:12:1,2012-09-02T05:00:00Z,26.4966,-82.1479,2.359,6.31,1111122 
SCCF RECON,ioos:station:SCCF:12:1,2012-09-02T06:00:00Z,26.4966,-82.1479,2.42,6.48,1111122 
SCCF RECON,ioos:station:SCCF:12:1,2012-09-02T07:00:00Z,26.4966,-82.1479,2.416,6.72,1111122 
SCCF RECON,ioos:station:SCCF:12:1,2012-09-02T08:00:00Z,26.4966,-82.1479,2.36,6.52,1111122 
SCCF RECON,ioos:station:SCCF:12:1,2012-09-02T09:00:00Z,26.4966,-82.1479,2.296,6.44,1111122 
SCCF RECON,ioos:station:SCCF:12:1,2012-09-02T10:00:00Z,26.4966,-82.1479,2.19,6.18,1111122 
SCCF RECON,ioos:station:SCCF:12:1,2012-09-02T11:00:00Z,26.4966,-82.1479,2.078,6.06,1111122 
SCCF RECON,ioos:station:SCCF:12:1,2012-09-02T12:00:00Z,26.4966,-82.1479,1.979,6.01,1111122 
SCCF RECON,ioos:station:SCCF:12:1,2012-09-02T13:00:00Z,26.4966,-82.1479,1.92,5.97,1111122 
SCCF RECON,ioos:station:SCCF:12:1,2012-09-02T14:00:00Z,26.4966,-82.1479,1.95,6.03,1111122 
SCCF RECON,ioos:station:SCCF:12:1,2012-09-02T15:00:00Z,26.4966,-82.1479,2.1,6.09,1111122 
SCCF RECON,ioos:station:SCCF:12:1,2012-09-02T16:00:00Z,26.4966,-82.1479,2.279,6.13,1111122 
SCCF RECON,ioos:station:SCCF:12:1,2012-09-02T17:00:00Z,26.4966,-82.1479,2.418,6.27,1111122 
SCCF RECON,ioos:station:SCCF:12:1,2012-09-02T18:00:00Z,26.4966,-82.1479,2.505,6.27,1111122 
SCCF RECON,ioos:station:SCCF:12:1,2012-09-02T19:00:00Z,26.4966,-82.1479,2.527,6.72,1111122 
SCCF RECON,ioos:station:SCCF:12:1,2012-09-02T20:00:00Z,26.4966,-82.1479,2.48,7.23,1111122 
SCCF RECON,ioos:station:SCCF:12:1,2012-09-02T21:00:00Z,26.4966,-82.1479,2.389,7.12,1111122 
SCCF RECON,ioos:station:SCCF:12:1,2012-09-02T22:00:00Z,26.4966,-82.1479,2.27,7.16,1111122 
SCCF RECON,ioos:station:SCCF:12:1,2012-09-02T23:00:00Z,26.4966,-82.1479,2.164,8.02,1111122 
SCCF RECON,ioos:station:SCCF:12:1,2012-09-03T00:00:00Z,26.4966,-82.1479,2.08,7.9,1111122 
SCCF RECON,ioos:station:SCCF:12:1,2012-09-03T01:00:00Z,26.4966,-82.1479,2.014,7.47,1111122 
SCCF RECON,ioos:station:SCCF:12:1,2012-09-03T02:00:00Z,26.4966,-82.1479,2.039,6.76,1111122 
SCCF RECON,ioos:station:SCCF:12:1,2012-09-03T03:00:00Z,26.4966,-82.1479,2.12,6.69,1111122 
SCCF RECON,ioos:station:SCCF:12:1,2012-09-03T04:00:00Z,26.4966,-82.1479,2.242,6.06,1111122 
SCCF RECON,ioos:station:SCCF:12:1,2012-09-03T05:00:00Z,26.4966,-82.1479,2.364,5.57,1111122 
SCCF RECON,ioos:station:SCCF:12:1,2012-09-03T06:00:00Z,26.4966,-82.1479,2.44,6.1,1111122 
SCCF RECON,ioos:station:SCCF:12:1,2012-09-03T07:00:00Z,26.4966,-82.1479,2.469,6.39,1111122 
SCCF RECON,ioos:station:SCCF:12:1,2012-09-03T08:00:00Z,26.4966,-82.1479,2.44,6.45,1111122 
SCCF RECON,ioos:station:SCCF:12:1,2012-09-03T09:00:00Z,26.4966,-82.1479,2.38,6.28,1111122 
SCCF RECON,ioos:station:SCCF:12:1,2012-09-03T10:00:00Z,26.4966,-82.1479,2.29,6.07,1111122 
SCCF RECON,ioos:station:SCCF:12:1,2012-09-03T11:00:00Z,26.4966,-82.1479,2.19,6.02,1111122 
SCCF RECON,ioos:station:SCCF:12:1,2012-09-03T12:00:00Z,26.4966,-82.1479,2.09,5.8,1111122 
SCCF RECON,ioos:station:SCCF:12:1,2012-09-03T13:00:00Z,26.4966,-82.1479,2.01,5.81,1111122 
SCCF RECON,ioos:station:SCCF:12:1,2012-09-03T14:00:00Z,26.4966,-82.1479,1.966,5.93,1111122 
SCCF RECON,ioos:station:SCCF:12:1,2012-09-03T15:00:00Z,26.4966,-82.1479,2.031,5.3,1111122 
SCCF RECON,ioos:station:SCCF:12:1,2012-09-03T16:00:00Z,26.4966,-82.1479,2.189,6.26,1111122 
SCCF RECON,ioos:station:SCCF:12:1,2012-09-03T17:00:00Z,26.4966,-82.1479,2.353,5.37,1111122 
SCCF RECON,ioos:station:SCCF:12:1,2012-09-03T18:00:00Z,26.4966,-82.1479,2.458,5.8,1111122 
SCCF RECON,ioos:station:SCCF:12:1,2012-09-03T19:00:00Z,26.4966,-82.1479,2.512,6.49,1111122 
SCCF RECON,ioos:station:SCCF:12:1,2012-09-03T20:00:00Z,26.4966,-82.1479,2.5,7.11,1111122 
SCCF RECON,ioos:station:SCCF:12:1,2012-09-03T21:00:00Z,26.4966,-82.1479,2.423,7.41,1111122 
SCCF RECON,ioos:station:SCCF:12:1,2012-09-03T22:00:00Z,26.4966,-82.1479,2.318,6.06,1111122 
SCCF RECON,ioos:station:SCCF:12:1,2012-09-03T23:00:00Z,26.4966,-82.1479,2.225,5.56,1111122 
SCCF RECON,ioos:station:SCCF:12:1,2012-09-04T00:00:00Z,26.4966,-82.1479,2.142,5.33,1111122 
SCCF RECON,ioos:station:SCCF:12:1,2012-09-04T01:00:00Z,26.4966,-82.1479,2.088,5.62,1111122 
SCCF RECON,ioos:station:SCCF:12:1,2012-09-04T02:00:00Z,26.4966,-82.1479,2.088,5.83,1111122 
SCCF RECON,ioos:station:SCCF:12:1,2012-09-04T03:00:00Z,26.4966,-82.1479,2.13,5.46,1111122 
SCCF RECON,ioos:station:SCCF:12:1,2012-09-04T04:00:00Z,26.4966,-82.1479,2.217,5.9,1111122 
SCCF RECON,ioos:station:SCCF:12:1,2012-09-04T05:00:00Z,26.4966,-82.1479,2.33,5.92,1111122 
SCCF RECON,ioos:station:SCCF:12:1,2012-09-04T06:00:00Z,26.4966,-82.1479,2.437,6.12,1111122 
SCCF RECON,ioos:station:SCCF:12:1,2012-09-04T07:00:00Z,26.4966,-82.1479,2.483,6.27,1111122 
SCCF RECON,ioos:station:SCCF:12:1,2012-09-04T08:00:00Z,26.4966,-82.1479,2.489,6.15,1111122 
SCCF RECON,ioos:station:SCCF:12:1,2012-09-04T09:00:00Z,26.4966,-82.1479,2.439,6.05,1111122 
SCCF RECON,ioos:station:SCCF:12:1,2012-09-04T10:00:00Z,26.4966,-82.1479,2.33,5.96,1111122 
SCCF RECON,ioos:station:SCCF:12:1,2012-09-04T11:00:00Z,26.4966,-82.1479,2.22,5.54,1111122 
SCCF RECON,ioos:station:SCCF:12:1,2012-09-04T12:00:00Z,26.4966,-82.1479,2.104,5.65,1111122 
SCCF RECON,ioos:station:SCCF:12:1,2012-09-04T13:00:00Z,26.4966,-82.1479,2.0,5.81,1111122 
SCCF RECON,ioos:station:SCCF:12:1,2012-09-04T14:00:00Z,26.4966,-82.1479,1.931,5.61,1111122 
SCCF RECON,ioos:station:SCCF:12:1,2012-09-04T15:00:00Z,26.4966,-82.1479,1.94,4.85,1111122 
SCCF RECON,ioos:station:SCCF:12:1,2012-09-04T16:00:00Z,26.4966,-82.1479,2.04,5.3,1111122 
SCCF RECON,ioos:station:SCCF:12:1,2012-09-04T17:00:00Z,26.4966,-82.1479,2.18,5.55,1111122 
SCCF RECON,ioos:station:SCCF:12:1,2012-09-04T18:00:00Z,26.4966,-82.1479,2.32,5.83,1111122 
SCCF RECON,ioos:station:SCCF:12:1,2012-09-04T19:00:00Z,26.4966,-82.1479,2.409,5.65,1111122 
SCCF RECON,ioos:station:SCCF:12:1,2012-09-04T20:00:00Z,26.4966,-82.1479,2.43,6.06,1111122 
SCCF RECON,ioos:station:SCCF:12:1,2012-09-04T21:00:00Z,26.4966,-82.1479,2.41,6.32,1111122 
SCCF RECON,ioos:station:SCCF:12:1,2012-09-04T22:00:00Z,26.4966,-82.1479,2.35,5.92,1111122 
SCCF RECON,ioos:station:SCCF:12:1,2012-09-04T23:00:00Z,26.4966,-82.1479,2.29,5.5,1111122 
SCCF RECON,ioos:station:SCCF:12:1,2012-09-05T00:00:00Z,26.4966,-82.1479,2.23,5.24,1111122 
SCCF RECON,ioos:station:SCCF:12:1,2012-09-05T01:00:00Z,26.4966,-82.1479,2.2,5.37,1111122 
SCCF RECON,ioos:station:SCCF:12:1,2012-09-05T02:00:00Z,26.4966,-82.1479,2.18,4.31,1111122 
SCCF RECON,ioos:station:SCCF:12:1,2012-09-05T03:00:00Z,26.4966,-82.1479,2.19,4.78,1111122 
SCCF RECON,ioos:station:SCCF:12:1,2012-09-05T04:00:00Z,26.4966,-82.1479,2.23,5.02,1111122 
SCCF RECON,ioos:station:SCCF:12:1,2012-09-05T05:00:00Z,26.4966,-82.1479,2.31,5.32,1111122 
SCCF RECON,ioos:station:SCCF:12:1,2012-09-05T06:00:00Z,26.4966,-82.1479,2.41,5.43,1111122 
SCCF RECON,ioos:station:SCCF:12:1,2012-09-05T07:00:00Z,26.4966,-82.1479,2.5,5.4,1111122 
SCCF RECON,ioos:station:SCCF:12:1,2012-09-05T08:00:00Z,26.4966,-82.1479,2.53,5.68,1111122 
SCCF RECON,ioos:station:SCCF:12:1,2012-09-05T09:00:00Z,26.4966,-82.1479,2.493,5.06,1111122 
SCCF RECON,ioos:station:SCCF:12:1,2012-09-05T10:00:00Z,26.4966,-82.1479,2.42,6.17,1111122 
SCCF RECON,ioos:station:SCCF:12:1,2012-09-05T11:00:00Z,26.4966,-82.1479,2.329,5.49,1111122 
SCCF RECON,ioos:station:SCCF:12:1,2012-09-05T12:00:00Z,26.4966,-82.1479,2.21,5.4,1111122 
SCCF RECON,ioos:station:SCCF:12:1,2012-09-05T13:00:00Z,26.4966,-82.1479,2.109,5.5,1111122 
SCCF RECON,ioos:station:SCCF:12:1,2012-09-05T14:00:00Z,26.4966,-82.1479,2.011,5.46,1111122 
SCCF RECON,ioos:station:SCCF:12:1,2012-09-05T15:00:00Z,26.4966,-82.1479,1.94,5.37,1111122 
SCCF RECON,ioos:station:SCCF:12:1,2012-09-05T16:00:00Z,26.4966,-82.1479,1.96,4.51,1111122 
SCCF RECON,ioos:station:SCCF:12:1,2012-09-05T17:00:00Z,26.4966,-82.1479,2.08,5.21,1111122 
SCCF RECON,ioos:station:SCCF:12:1,2012-09-05T18:00:00Z,26.4966,-82.1479,2.2,5.82,1111122 
SCCF RECON,ioos:station:SCCF:12:1,2012-09-05T19:00:00Z,26.4966,-82.1479,2.29,6.93,1111122 
SCCF RECON,ioos:station:SCCF:12:1,2012-09-05T20:00:00Z,26.4966,-82.1479,2.34,7.07,1111122 
SCCF RECON,ioos:station:SCCF:12:1,2012-09-05T21:00:00Z,26.4966,-82.1479,2.35,5.89,1111122 
SCCF RECON,ioos:station:SCCF:12:1,2012-09-05T22:00:00Z,26.4966,-82.1479,2.35,7.2,1111122 
SCCF RECON,ioos:station:SCCF:12:1,2012-09-05T23:00:00Z,26.4966,-82.1479,2.32,4.59,1111122 
SCCF RECON,ioos:station:SCCF:12:1,2012-09-06T00:00:00Z,26.4966,-82.1479,2.28,5.37,1111122 
SCCF RECON,ioos:station:SCCF:12:1,2012-09-06T01:00:00Z,26.4966,-82.1479,2.223,4.48,1111122 
SCCF RECON,ioos:station:SCCF:12:1,2012-09-06T02:00:00Z,26.4966,-82.1479,2.182,5.67,1111122 
SCCF RECON,ioos:station:SCCF:12:1,2012-09-06T03:00:00Z,26.4966,-82.1479,2.17,4.48,1111122 
SCCF RECON,ioos:station:SCCF:12:1,2012-09-06T04:00:00Z,26.4966,-82.1479,2.24,4.19,1111122 
SCCF RECON,ioos:station:SCCF:12:1,2012-09-06T05:00:00Z,26.4966,-82.1479,2.29,4.32,1111122 
SCCF RECON,ioos:station:SCCF:12:1,2012-09-06T06:00:00Z,26.4966,-82.1479,2.33,4.47,1111122 
SCCF RECON,ioos:station:SCCF:12:1,2012-09-06T07:00:00Z,26.4966,-82.1479,2.42,5.22,1111122 
SCCF RECON,ioos:station:SCCF:12:1,2012-09-06T08:00:00Z,26.4966,-82.1479,2.47,5.32,1111122 
SCCF RECON,ioos:station:SCCF:12:1,2012-09-06T09:00:00Z,26.4966,-82.1479,2.49,5.49,1111122 
SCCF RECON,ioos:station:SCCF:12:1,2012-09-06T10:00:00Z,26.4966,-82.1479,2.461,5.47,1111122 
SCCF RECON,ioos:station:SCCF:12:1,2012-09-06T11:00:00Z,26.4966,-82.1479,2.39,5.47,1111122 
SCCF RECON,ioos:station:SCCF:12:1,2012-09-06T12:00:00Z,26.4966,-82.1479,1.0,-9999.0,1111122 
SCCF RECON,ioos:station:SCCF:12:1,2012-09-06T13:00:00Z,26.4966,-82.1479,2.21,4.88,1111122 
SCCF RECON,ioos:station:SCCF:12:1,2012-09-06T14:00:00Z,26.4966,-82.1479,2.107,5.18,1111122 
SCCF RECON,ioos:station:SCCF:12:1,2012-09-06T15:00:00Z,26.4966,-82.1479,2.03,5.39,1111122 
SCCF RECON,ioos:station:SCCF:12:1,2012-09-06T16:00:00Z,26.4966,-82.1479,1.971,6.27,1111122 
SCCF RECON,ioos:station:SCCF:12:1,2012-09-06T17:00:00Z,26.4966,-82.1479,1.0,-9999.0,1111122 
SCCF RECON,ioos:station:SCCF:12:1,2012-09-06T18:00:00Z,26.4966,-82.1479,2.08,5.74,1111122 
SCCF RECON,ioos:station:SCCF:12:1,2012-09-06T19:00:00Z,26.4966,-82.1479,2.18,6.05,1111122 
SCCF RECON,ioos:station:SCCF:12:1,2012-09-06T20:00:00Z,26.4966,-82.1479,1.0,-9999.0,1111122 
SCCF RECON,ioos:station:SCCF:12:1,2012-09-06T21:00:00Z,26.4966,-82.1479,2.3,7.33,1111122 
SCCF RECON,ioos:station:SCCF:12:1,2012-09-06T22:00:00Z,26.4966,-82.1479,1.0,-9999.0,1111122 
SCCF RECON,ioos:station:SCCF:12:1,2012-09-06T23:00:00Z,26.4966,-82.1479,2.29,7.38,1111122 
SCCF RECON,ioos:station:SCCF:12:1,2012-09-07T00:00:00Z,26.4966,-82.1479,1.0,-9999.0,1111122 
SCCF RECON,ioos:station:SCCF:12:1,2012-09-07T01:00:00Z,26.4966,-82.1479,2.24,3.91,1111122 
SCCF RECON,ioos:station:SCCF:12:1,2012-09-07T02:00:00Z,26.4966,-82.1479,2.21,3.62,1111122 
SCCF RECON,ioos:station:SCCF:12:1,2012-09-07T03:00:00Z,26.4966,-82.1479,1.0,-9999.0,1111122 
SCCF RECON,ioos:station:SCCF:12:1,2012-09-07T04:00:00Z,26.4966,-82.1479,2.21,4.86,1111122 
SCCF RECON,ioos:station:SCCF:12:1,2012-09-07T05:00:00Z,26.4966,-82.1479,1.0,-9999.0,1111122 
SCCF RECON,ioos:station:SCCF:12:1,2012-09-07T06:00:00Z,26.4966,-82.1479,1.0,-9999.0,1111122 
SCCF RECON,ioos:station:SCCF:12:1,2012-09-07T07:00:00Z,26.4966,-82.1479,2.36,5.59,1111122 
SCCF RECON,ioos:station:SCCF:12:1,2012-09-07T08:00:00Z,26.4966,-82.1479,1.0,-9999.0,1111122 
SCCF RECON,ioos:station:SCCF:12:1,2012-09-07T09:00:00Z,26.4966,-82.1479,1.0,-9999.0,1111122 
SCCF RECON,ioos:station:SCCF:12:1,2012-09-07T10:00:00Z,26.4966,-82.1479,1.0,-9999.0,1111122 
SCCF RECON,ioos:station:SCCF:12:1,2012-09-07T11:00:00Z,26.4966,-82.1479,1.0,-9999.0,1111122 
SCCF RECON,ioos:station:SCCF:12:1,2012-09-07T12:00:00Z,26.4966,-82.1479,2.37,5.15,1111122 
SCCF RECON,ioos:station:SCCF:12:1,2012-09-07T13:00:00Z,26.4966,-82.1479,1.0,-9999.0,1111122 
SCCF RECON,ioos:station:SCCF:12:1,2012-09-07T14:00:00Z,26.4966,-82.1479,1.0,-9999.0,1111122 
SCCF RECON,ioos:station:SCCF:12:1,2012-09-07T15:00:00Z,26.4966,-82.1479,1.0,-9999.0,1111122 
SCCF RECON,ioos:station:SCCF:12:1,2012-09-07T16:00:00Z,26.4966,-82.1479,1.0,-9999.0,1111122 
SCCF RECON,ioos:station:SCCF:12:1,2012-09-07T17:00:00Z,26.4966,-82.1479,1.0,-9999.0,1111122 
SCCF RECON,ioos:station:SCCF:12:1,2012-09-07T18:00:00Z,26.4966,-82.1479,1.0,-9999.0,1111122 
SCCF RECON,ioos:station:SCCF:12:1,2012-09-07T19:00:00Z,26.4966,-82.1479,1.0,-9999.0,1111122 
SCCF RECON,ioos:station:SCCF:12:1,2012-09-07T20:00:00Z,26.4966,-82.1479,1.0,-9999.0,1111122 
SCCF RECON,ioos:station:SCCF:12:1,2012-09-07T21:00:00Z,26.4966,-82.1479,1.0,-9999.0,1111122 
SCCF RECON,ioos:station:SCCF:12:1,2012-09-07T22:00:00Z,26.4966,-82.1479,1.0,-9999.0,1111122 
SCCF RECON,ioos:station:SCCF:12:1,2012-09-07T23:00:00Z,26.4966,-82.1479,1.0,-9999.0,1111122 
SCCF RECON,ioos:station:SCCF:12:1,2012-09-08T00:00:00Z,26.4966,-82.1479,1.0,-9999.0,1111122 
SCCF RECON,ioos:station:SCCF:12:1,2012-09-08T01:00:00Z,26.4966,-82.1479,1.0,-9999.0,1111122 
SCCF RECON,ioos:station:SCCF:12:1,2012-09-08T02:00:00Z,26.4966,-82.1479,1.0,-9999.0,1111122 
SCCF RECON,ioos:station:SCCF:12:1,2012-09-08T03:00:00Z,26.4966,-82.1479,1.0,-9999.0,1111122 
SCCF RECON,ioos:station:SCCF:12:1,2012-09-08T04:00:00Z,26.4966,-82.1479,1.0,-9999.0,1111122 
SCCF RECON,ioos:station:SCCF:12:1,2012-09-08T05:00:00Z,26.4966,-82.1479,1.0,-9999.0,1111122 
SCCF RECON,ioos:station:SCCF:12:1,2012-09-08T06:00:00Z,26.4966,-82.1479,1.0,-9999.0,1111122 
SCCF RECON,ioos:station:SCCF:12:1,2012-09-08T07:00:00Z,26.4966,-82.1479,1.0,-9999.0,1111122 
SCCF RECON,ioos:station:SCCF:12:1,2012-09-08T08:00:00Z,26.4966,-82.1479,1.0,-9999.0,1111122 
SCCF RECON,ioos:station:SCCF:12:1,2012-09-08T09:00:00Z,26.4966,-82.1479,1.0,-9999.0,1111122 
SCCF RECON,ioos:station:SCCF:12:1,2012-09-08T10:00:00Z,26.4966,-82.1479,1.0,-9999.0,1111122 
SCCF RECON,ioos:station:SCCF:12:1,2012-09-08T11:00:00Z,26.4966,-82.1479,1.0,-9999.0,1111122 
SCCF RECON,ioos:station:SCCF:12:1,2012-09-08T12:00:00Z,26.4966,-82.1479,1.0,-9999.0,1111122 
SCCF RECON,ioos:station:SCCF:12:1,2012-09-08T13:00:00Z,26.4966,-82.1479,2.39,4.48,1111122 
SCCF RECON,ioos:station:SCCF:12:1,2012-09-08T14:00:00Z,26.4966,-82.1479,2.294,5.02,1111122 
SCCF RECON,ioos:station:SCCF:12:1,2012-09-08T16:00:00Z,26.4966,-82.1479,2.121,4.76,1111122 
SCCF RECON,ioos:station:SCCF:12:1,2012-09-08T17:00:00Z,26.4966,-82.1479,2.052,4.99,1111122 
SCCF RECON,ioos:station:SCCF:12:1,2012-09-08T19:00:00Z,26.4966,-82.1479,2.006,6.04,1111122 
SCCF RECON,ioos:station:SCCF:12:1,2012-09-08T21:00:00Z,26.4966,-82.1479,2.131,6.57,1111122 
SCCF RECON,ioos:station:SCCF:12:1,2012-09-08T23:00:00Z,26.4966,-82.1479,2.259,5.23,1111122 
SCCF RECON,ioos:station:SCCF:12:1,2012-09-09T01:00:00Z,26.4966,-82.1479,2.298,5.69,1111122 
SCCF RECON,ioos:station:SCCF:12:1,2012-09-09T03:00:00Z,26.4966,-82.1479,2.32,6.43,1111122 
SCCF RECON,ioos:station:SCCF:12:1,2012-09-09T05:00:00Z,26.4966,-82.1479,2.33,5.85,1111122 
SCCF RECON,ioos:station:SCCF:12:1,2012-09-09T07:00:00Z,26.4966,-82.1479,2.39,5.81,1111122 
SCCF RECON,ioos:station:SCCF:12:1,2012-09-09T09:00:00Z,26.4966,-82.1479,2.46,5.63,1111122 
SCCF RECON,ioos:station:SCCF:12:1,2012-09-09T11:00:00Z,26.4966,-82.1479,1.0,-9999.0,1111122 
SCCF RECON,ioos:station:SCCF:12:1,2012-09-09T12:00:00Z,26.4966,-82.1479,1.0,-9999.0,1111122 
SCCF RECON,ioos:station:SCCF:12:1,2012-09-09T13:00:00Z,26.4966,-82.1479,1.0,-9999.0,1111122 
SCCF RECON,ioos:station:SCCF:12:1,2012-09-09T14:00:00Z,26.4966,-82.1479,2.418,5.59,1111122 
SCCF RECON,ioos:station:SCCF:12:1,2012-09-18T17:00:00Z,26.4966,-82.1479,2.336,6.59,1111122 
SCCF RECON,ioos:station:SCCF:12:1,2012-09-18T18:00:00Z,26.4966,-82.1479,2.43,7.74,1111122 
SCCF RECON,ioos:station:SCCF:12:1,2012-09-18T19:00:00Z,26.4966,-82.1479,2.495,7.73,1111122 
SCCF RECON,ioos:station:SCCF:12:1,2012-09-18T20:00:00Z,26.4966,-82.1479,2.523,7.69,1111122 
SCCF RECON,ioos:station:SCCF:12:1,2012-09-18T21:00:00Z,26.4966,-82.1479,2.5,6.63,1111122 
SCCF RECON,ioos:station:SCCF:12:1,2012-09-18T22:00:00Z,26.4966,-82.1479,2.473,6.53,1111122 
SCCF RECON,ioos:station:SCCF:12:1,2012-09-18T23:00:00Z,26.4966,-82.1479,2.35,6.9,1111122 
SCCF RECON,ioos:station:SCCF:12:1,2012-09-19T00:00:00Z,26.4966,-82.1479,2.231,6.85,1111122 
SCCF RECON,ioos:station:SCCF:12:1,2012-09-19T01:00:00Z,26.4966,-82.1479,2.14,6.0,1111122 
SCCF RECON,ioos:station:SCCF:12:1,2012-09-19T02:00:00Z,26.4966,-82.1479,2.121,6.75,1111122 
SCCF RECON,ioos:station:SCCF:12:1,2012-09-19T03:00:00Z,26.4966,-82.1479,2.224,6.1,1111122 
SCCF RECON,ioos:station:SCCF:12:1,2012-09-19T04:00:00Z,26.4966,-82.1479,2.36,5.38,1111122 
SCCF RECON,ioos:station:SCCF:12:1,2012-09-19T05:00:00Z,26.4966,-82.1479,2.45,5.41,1111122 
SCCF RECON,ioos:station:SCCF:12:1,2012-09-19T06:00:00Z,26.4966,-82.1479,2.58,5.8,1111122 
SCCF RECON,ioos:station:SCCF:12:1,2012-09-19T07:00:00Z,26.4966,-82.1479,2.65,5.58,1111122 
SCCF RECON,ioos:station:SCCF:12:1,2012-09-19T08:00:00Z,26.4966,-82.1479,2.64,4.74,1111122 
SCCF RECON,ioos:station:SCCF:12:1,2012-09-19T09:00:00Z,26.4966,-82.1479,2.53,5.12,1111122 
SCCF RECON,ioos:station:SCCF:12:1,2012-09-19T10:00:00Z,26.4966,-82.1479,2.36,5.6,1111122 
SCCF RECON,ioos:station:SCCF:12:1,2012-09-19T11:00:00Z,26.4966,-82.1479,2.2,4.95,1111122 
SCCF RECON,ioos:station:SCCF:12:1,2012-09-19T12:00:00Z,26.4966,-82.1479,2.07,4.9,1111122 
SCCF RECON,ioos:station:SCCF:12:1,2012-09-19T13:00:00Z,26.4966,-82.1479,1.938,4.91,1111122 
SCCF RECON,ioos:station:SCCF:12:1,2012-09-19T14:00:00Z,26.4966,-82.1479,1.85,5.29,1111122 
SCCF RECON,ioos:station:SCCF:12:1,2012-09-19T15:00:00Z,26.4966,-82.1479,1.82,5.24,1111122 
SCCF RECON,ioos:station:SCCF:12:1,2012-09-19T16:00:00Z,26.4966,-82.1479,1.911,5.57,1111122 
SCCF RECON,ioos:station:SCCF:12:1,2012-09-19T17:00:00Z,26.4966,-82.1479,2.079,5.81,1111122 
SCCF RECON,ioos:station:SCCF:12:1,2012-09-19T18:00:00Z,26.4966,-82.1479,2.21,5.74,1111122 
SCCF RECON,ioos:station:SCCF:12:1,2012-09-19T19:00:00Z,26.4966,-82.1479,2.3,5.14,1111122 
SCCF RECON,ioos:station:SCCF:12:1,2012-09-19T20:00:00Z,26.4966,-82.1479,2.35,6.08,1111122 
SCCF RECON,ioos:station:SCCF:12:1,2012-09-19T21:00:00Z,26.4966,-82.1479,2.352,5.78,1111122 
SCCF RECON,ioos:station:SCCF:12:1,2012-09-19T22:00:00Z,26.4966,-82.1479,2.31,6.09,1111122 
SCCF RECON,ioos:station:SCCF:12:1,2012-09-19T23:00:00Z,26.4966,-82.1479,2.24,6.37,1111122 
SCCF RECON,ioos:station:SCCF:12:1,2012-09-20T00:00:00Z,26.4966,-82.1479,2.19,6.69,1111122 
SCCF RECON,ioos:station:SCCF:12:1,2012-09-20T01:00:00Z,26.4966,-82.1479,2.121,5.71,1111122 
SCCF RECON,ioos:station:SCCF:12:1,2012-09-20T02:00:00Z,26.4966,-82.1479,2.1,6.2,1111122 
SCCF RECON,ioos:station:SCCF:12:1,2012-09-20T03:00:00Z,26.4966,-82.1479,2.13,6.32,1111122 
SCCF RECON,ioos:station:SCCF:12:1,2012-09-20T04:00:00Z,26.4966,-82.1479,2.222,6.26,1111122 
SCCF RECON,ioos:station:SCCF:12:1,2012-09-20T05:00:00Z,26.4966,-82.1479,2.34,5.9,1111122 
SCCF RECON,ioos:station:SCCF:12:1,2012-09-20T06:00:00Z,26.4966,-82.1479,2.464,5.65,1111122 
SCCF RECON,ioos:station:SCCF:12:1,2012-09-20T07:00:00Z,26.4966,-82.1479,2.54,5.3,1111122 
SCCF RECON,ioos:station:SCCF:12:1,2012-09-20T08:00:00Z,26.4966,-82.1479,2.56,5.91,1111122 
SCCF RECON,ioos:station:SCCF:12:1,2012-09-20T09:00:00Z,26.4966,-82.1479,2.512,6.02,1111122 
SCCF RECON,ioos:station:SCCF:12:1,2012-09-20T10:00:00Z,26.4966,-82.1479,2.42,5.58,1111122 
SCCF RECON,ioos:station:SCCF:12:1,2012-09-20T11:00:00Z,26.4966,-82.1479,2.28,5.39,1111122 
SCCF RECON,ioos:station:SCCF:12:1,2012-09-20T12:00:00Z,26.4966,-82.1479,2.14,5.46,1111122 
SCCF RECON,ioos:station:SCCF:12:1,2012-09-20T13:00:00Z,26.4966,-82.1479,2.009,5.37,1111122 
SCCF RECON,ioos:station:SCCF:12:1,2012-09-20T14:00:00Z,26.4966,-82.1479,1.898,5.4,1111122 
SCCF RECON,ioos:station:SCCF:12:1,2012-09-20T15:00:00Z,26.4966,-82.1479,1.81,5.55,1111122 
SCCF RECON,ioos:station:SCCF:12:1,2012-09-20T16:00:00Z,26.4966,-82.1479,1.76,5.57,1111122 
SCCF RECON,ioos:station:SCCF:12:1,2012-09-20T17:00:00Z,26.4966,-82.1479,1.81,5.91,1111122 
SCCF RECON,ioos:station:SCCF:12:1,2012-09-20T18:00:00Z,26.4966,-82.1479,1.95,6.35,1111122 
SCCF RECON,ioos:station:SCCF:12:1,2012-09-20T19:00:00Z,26.4966,-82.1479,2.07,6.56,1111122 
SCCF RECON,ioos:station:SCCF:12:1,2012-09-20T20:00:00Z,26.4966,-82.1479,2.142,5.82,1111122 
SCCF RECON,ioos:station:SCCF:12:1,2012-09-20T21:00:00Z,26.4966,-82.1479,2.2,6.67,1111122 
SCCF RECON,ioos:station:SCCF:12:1,2012-09-20T22:00:00Z,26.4966,-82.1479,2.229,6.04,1111122 
SCCF RECON,ioos:station:SCCF:12:1,2012-09-20T23:00:00Z,26.4966,-82.1479,2.22,6.73,1111122 
SCCF RECON,ioos:station:SCCF:12:1,2012-09-21T00:00:00Z,26.4966,-82.1479,2.172,6.47,1111122 
SCCF RECON,ioos:station:SCCF:12:1,2012-09-21T01:00:00Z,26.4966,-82.1479,2.145,6.56,1111122 
SCCF RECON,ioos:station:SCCF:12:1,2012-09-21T02:00:00Z,26.4966,-82.1479,2.16,6.7,1111122 
SCCF RECON,ioos:station:SCCF:12:1,2012-09-21T03:00:00Z,26.4966,-82.1479,2.142,6.5,1111122 
SCCF RECON,ioos:station:SCCF:12:1,2012-09-21T04:00:00Z,26.4966,-82.1479,2.151,6.23,1111122 
SCCF RECON,ioos:station:SCCF:12:1,2012-09-21T05:00:00Z,26.4966,-82.1479,2.226,5.85,1111122 
SCCF RECON,ioos:station:SCCF:12:1,2012-09-21T06:00:00Z,26.4966,-82.1479,2.31,5.79,1111122 
SCCF RECON,ioos:station:SCCF:12:1,2012-09-21T07:00:00Z,26.4966,-82.1479,2.414,5.77,1111122 
SCCF RECON,ioos:station:SCCF:12:1,2012-09-21T08:00:00Z,26.4966,-82.1479,2.559,5.85,1111122 